Location: Quedlinburg
(51.7921°N, 11.1414°E)
Time: 13:57:12
(UTC+02:00)

RS-15 - Pass Details

Date: 11 March 2026
Orbit: 1893 x 2152 km, 64.8° (Epoch: 22 April)

Event Time Altitude Azimuth Distance (km) Brightness Sun altitude
Rises 01:55:33 0° 288° (WNW) 5,309 10.2 -38.5°
Reaches altitude 10° 01:59:06 10° 295° (WNW) 4,333 9.8 -38.2°
Maximum altitude 02:09:35 43° 6° (N) 2,587 8.8 -37.3°
Drops below altitude 10° 02:20:33 10° 76° (ENE) 4,519 10.4 -36.4°
Sets 02:24:20 0° 83° (E) 5,554 10.9 -36.0°
